Location: *
(49.6619°S, 177.4603°W)
Time: 05:16:49
(UTC+00:00)

Aureole 1 Rocket - Pass Details

Date: 31 January 2023
Orbit: 379 x 1321 km, 73.9° (Epoch: 01 April)

Event Time Altitude Azimuth Distance (km) Brightness Sun altitude
Rises 08:08:31 0° 209° (SSW) 2,308 7.4 -5.3°
Reaches altitude 10° 08:10:31 10° 216° (SW) 1,461 6.4 -5.6°
Maximum altitude 08:13:30 45° 290° (WNW) 588 3.3 -6.0°
Drops below altitude 10° 08:16:50 10° 3° (N) 1,625 4.9 -6.4°
Enters shadow 08:19:03 - 9° (N) 2,564 5.8 -6.7°
